Home   Weather   Nijmegen   Past weeks

Flag for Netherlands Past Weather in Nijmegen, Netherlands — Yesterday and Last 2 Weeks

Now
61 °F

Overcast.


Feels Like: 61 °F
Forecast: 58 / 70 °F
Wind: 10 mph from Southwest

Location: Volkel

Current Time: Sep 28, 2016 at 5:32:39 AM

Latest Report: Sep 28, 2016 at 4:55 AM


Visibility: N/A

Pressure: 30.21 "Hg

Humidity: 63%

Dew Point: 48 °F

Location of NijmegenLocation

Past Weather in Nijmegen — Graph

°F

Nijmegen Temperature Yesterday

Maximum temperature yesterday: 72 °F (at 4:25 PM)
Minimum temperature yesterday: 41 °F (at 7:25 AM)
Average temperature yesterday: 55 °F

High & Low Weather Summary for the Past Weeks

 TemperatureHumidityPressure
High90 °F (Sep 13, 1:55 PM)100% (Sep 13, 5:25 AM)30.30 "Hg (Sep 13, 5:25 AM)
Low41 °F (Sep 27, 7:25 AM)29% (Sep 14, 2:55 PM)29.77 "Hg (Sep 15, 3:55 PM)
Average62 °F76%30.06 "Hg
* Reported Sep 13 4:04 AM — Sep 28 4:25 AM, Nijmegen, Weather by CustomWeather, © 2016

Note: Actual official high and low records may vary slightly from our data, if they occured in-between our weather recording intervals... More about our weather records

Advertising

Nijmegen Weather History for the Previous 24 Hours

Scroll right to see more
 ConditionsComfort  
Time TempWeatherWind HumidityBarometerVisibility
4:25 AM
Wed, Sep 28
61 °FMostly cloudy.13 mph59%30.24 "HgN/A
3:57 AM63 °FPartly cloudy.13 mph56%30.24 "HgN/A
3:25 AM61 °FMostly cloudy.10 mph59%30.24 "HgN/A
2:55 AM61 °FOvercast.8 mph59%30.24 "HgN/A
1:55 AM61 °FPassing clouds.9 mph55%30.24 "HgN/A
1:25 AM61 °FOvercast.7 mph59%30.27 "HgN/A
12:55 AM59 °FMostly cloudy.6 mph63%30.27 "HgN/A
12:25 AM57 °FMostly cloudy.6 mph67%30.27 "HgN/A
11:55 PM
Tue, Sep 27
57 °FMostly cloudy.6 mph72%30.27 "HgN/A
11:25 PM59 °FOvercast.7 mph63%30.27 "HgN/A
10:55 PM59 °FMostly cloudy.7 mph68%30.27 "HgN/A
10:25 PM55 °FOvercast.5 mph77%30.27 "HgN/A
9:55 PM54 °FPassing clouds.2 mph82%30.27 "HgN/A
9:25 PM55 °FPassing clouds.2 mph77%30.27 "HgN/A
8:55 PM54 °FCool.1 mph88%30.27 "HgN/A
8:25 PM57 °FPassing clouds.2 mph72%30.27 "HgN/A
7:55 PM57 °FPassing clouds.2 mph72%30.27 "HgN/A
7:25 PM59 °FOvercast.3 mph68%30.27 "HgN/A
6:55 PM63 °FPassing clouds.2 mph59%30.27 "HgN/A
6:25 PM66 °FMild.6 mph49%30.27 "HgN/A
5:55 PM70 °FMild.9 mph43%30.27 "HgN/A
5:25 PM70 °FMild.8 mph43%30.27 "HgN/A
4:55 PM70 °FPassing clouds.8 mph43%30.27 "HgN/A
4:25 PM72 °FMild.8 mph44%30.27 "HgN/A
3:59 PM70 °FMild.8 mph43%30.27 "HgN/A
3:55 PM70 °FMild.7 mph46%30.27 "HgN/A
3:25 PM70 °FMild.7 mph46%30.27 "HgN/A
2:55 PM70 °FMild.9 mph43%30.27 "HgN/A
2:25 PM68 °FMild.7 mph49%30.27 "HgN/A
1:55 PM68 °FMild.8 mph46%30.30 "HgN/A
1:25 PM66 °FMild.7 mph52%30.30 "HgN/A
12:55 PM66 °FMild.8 mph56%30.30 "HgN/A
12:25 PM64 °FMild.6 mph68%30.30 "HgN/A
11:55 AM64 °FPassing clouds.5 mph68%30.30 "HgN/A
11:25 AM63 °FMild.3 mph68%30.30 "HgN/A
10:55 AM61 °FPassing clouds.2 mph72%30.30 "HgN/A
10:25 AM59 °FCool.2 mph77%30.30 "HgN/A
9:55 AM55 °FCool.1 mph88%30.30 "HgN/A
9:25 AM52 °FCool.2 mph94%30.30 "HgN/A
8:55 AM48 °FCool.1 mph100%30.30 "HgN/A
8:25 AM45 °FQuite cool.2 mph100%30.30 "HgN/A
8:03 AM43 °FPassing clouds.2 mph100%30.27 "HgN/A
7:55 AM41 °FPartly sunny.2 mph100%30.27 "HgN/A
7:25 AM41 °FFog.2 mph100%30.27 "Hg1 mi
7:03 AM43 °FFog.5 mph100%30.27 "Hg1 mi
6:25 AM43 °FFog.2 mph100%30.27 "Hg1 mi
5:55 AM43 °FFog.1 mph100%30.27 "Hg1 mi
5:25 AM43 °FFog.1 mph93%30.24 "Hg0 mi
5:04 AM45 °FFog.No wind100%30.24 "Hg0 mi
Weather by CustomWeather, © 2016

See weather overviewHow to use our weather pages